Location: Lande Petite
(48.0962°N, 0.7807°W)
Time: 02:54:22
(UTC+00:00)

Daily predictions for brighter satellites

Satellite Brightness Start Highest point End
(mag) Time Altitude Azimuth Time Altitude Azimuth Time Altitude Azimuth
H-2A R/B 4.4 02:59:56 10° NE 03:02:39 19° ENE 03:02:39 19° ENE
NOSS 3-1 (A) 4.2 03:23:44 69° ESE 03:23:44 69° ESE 03:31:28 10° SE
Cosmos 1980 Rocket 3.8 03:23:21 29° ESE 03:23:34 29° ESE 03:28:20 10° NE
USA 281 4.3 03:22:17 10° ESE 03:28:16 39° NE 03:32:52 17° N
ATLAS 3B R/B 3.3 03:27:51 55° N 03:29:06 61° NE 03:36:47 10° ESE
USA 267 4.0 03:32:44 10° ENE 03:38:45 41° N 03:38:49 41° N
Cosmos 1697 Rocket 3.7 03:42:44 41° NE 03:42:44 41° NE 03:46:24 10° NNE
ATLAS CENTAUR R/B 4.2 03:43:56 13° NE 03:43:56 13° NE 03:44:27 10° NE
Lacrosse 4 Rocket 3.8 03:49:00 19° ESE 03:49:00 19° ESE 03:50:19 10° ESE
ATLAS 2AS CENTAUR R/B 2.7 03:47:22 85° ENE 03:47:22 85° ENE 03:54:12 10° NE
Cosmos 1818 4.5 03:51:21 43° SE 03:51:38 43° ESE 03:56:49 10° NE
USA 59 Rocket 2.2 03:53:36 21° NE 03:53:36 21° NE 03:56:23 10° E
CZ-2C R/B 4.1 03:54:41 10° NNE 03:56:41 25° NNE 03:56:41 25° NNE
Cosmos 2263 Rocket 2.4 04:00:00 69° ENE 04:00:00 69° ENE 04:05:30 10° SE
Cosmos 2082 4.1 04:03:04 51° NNE 04:04:09 61° ENE 04:09:45 10° SE
Cosmos 2227 Rocket 4.4 04:13:54 13° S 04:13:54 13° S 04:14:29 10° S
Cosmos 2285 Rocket 4.3 04:11:34 53° SSW 04:11:34 53° SSW 04:16:28 10° S
Cosmos 2266 Rocket 4.2 04:03:57 10° S 04:10:18 70° E 04:16:41 10° NNE
BREEZE-M DEB (TANK) 4.0 04:14:04 29° ENE 04:14:04 29° ENE 04:16:37 10° E
USA 229 DEB 4.1 04:21:54 30° NNW 04:26:01 72° NE 04:34:06 10° SE
USA 229 4.1 04:22:00 29° NNW 04:26:08 72° NE 04:34:11 10° SE
Cosmos 1484 Rocket 4.1 04:24:58 10° NNE 04:28:14 34° E 04:30:40 15° SSE
Cosmos 304 Rocket 4.4 04:26:56 29° N 04:29:08 53° ENE 04:33:47 10° SE
Cosmos 1655 Rocket 4.4 04:23:34 10° S 04:29:51 64° E 04:36:07 10° NNE
IRAS Rocket 4.2 04:28:45 10° NNE 04:34:18 86° ESE 04:39:50 10° SSW
S3M 3.8 04:29:24 10° NNW 04:35:40 73° W 04:41:48 10° S
Cosmos 2219 3.1 04:35:43 60° WSW 04:35:43 60° WSW 04:41:14 10° S
DELTA 2 R/B (1) 4.5 04:35:55 33° SSW 04:36:48 35° S 04:41:48 10° ESE
BREEZE-M DEB (TANK) 4.2 04:39:15 15° SE 04:39:15 15° SE 04:40:44 10° ESE
Cosmos 1417 Rocket 4.4 04:33:22 10° NNW 04:39:22 58° W 04:45:20 10° S
H-2A R/B 1.9 04:38:21 10° N 04:43:10 59° WNW 04:43:10 59° WNW
BREEZE-M DEB (TANK) 3.3 04:45:30 42° SSE 04:45:30 42° SSE 04:50:07 10° ESE
PAYLOAD A 4.4 04:42:57 10° N 04:47:56 46° WNW 04:47:56 46° WNW
SL-8 R/B 4.1 04:49:43 39° SSW 04:51:07 54° SSE 04:55:46 10° E
Meteor 1-24 Rocket 3.5 04:46:04 10° SSW 04:51:32 74° WNW 04:56:54 10° N
ARGOS 3.2 04:48:58 10° NNE 04:54:26 80° ESE 04:59:51 10° SSW
Thor Agena Rocket 3.4 04:50:47 10° NNE 04:56:02 83° WNW 05:01:11 10° SSW
Meteor 2-20 4.4 04:52:42 10° NNW 04:58:42 56° W 05:04:38 10° S
Cosmos 1844 Rocket 3.6 04:54:03 10° NNW 04:59:31 46° NE 05:04:54 10° SE
Meteor 2-20 Rocket 4.2 04:53:43 10° NNW 04:59:40 76° W 05:05:23 10° S
NOSS 2-1 (C) 3.7 04:58:21 37° NNW 04:59:42 62° NE 05:04:33 10° SE
Cosmos 2322 Rocket 4.4 04:57:55 10° SSE 05:02:34 27° ESE 05:07:13 10° NE
Sich 1 Rocket 4.1 05:00:54 10° N 05:05:20 61° ENE 05:09:47 10° SSE
Cosmos 1980 Rocket 2.3 05:05:10 33° WSW 05:07:17 50° NW 05:12:46 10° NNE
IRS-1D 3.8 05:04:14 10° N 05:08:51 40° WNW 05:09:55 35° W
Cosmos 2369 3.6 05:07:06 18° SW 05:11:23 64° WNW 05:17:01 10° NNE
USA 281 3.3 05:06:13 10° S 05:12:35 53° WSW 05:19:01 10° NNW
Cosmos 1378 Rocket 3.5 05:10:49 10° S 05:15:14 87° E 05:19:40 10° N
Cosmos 1674 Rocket 3.7 05:12:57 10° S 05:17:14 74° E 05:21:34 10° NNE
FengYun 1-2 T 4.3 05:11:47 10° NNE 05:17:27 86° ESE 05:23:07 10° SSW
ATLAS CENTAUR R/B 2.2 05:18:24 27° NNW 05:18:24 27° NNW 05:21:28 10° NNE
Cosmos 371 Rocket 3.4 05:16:34 24° NW 05:19:15 50° WSW 05:23:54 10° S
ATLAS 3B R/B 3.3 05:15:09 22° WNW 05:19:44 43° WSW 05:26:48 10° S
Meteor 2-5 Rocket 3.9 05:14:32 10° SW 05:20:03 47° WNW 05:25:31 10° N
Okean 2 Rocket 3.0 05:16:30 10° N 05:21:01 89° WSW 05:25:28 10° S
USA 267 3.7 05:14:46 10° E 05:21:07 57° NNE 05:26:09 17° NW
ARIANE 6 FM1 Upper Stage 3.5 05:17:19 10° SSW 05:21:25 52° SE 05:25:34 10° NE
Cosmos 482 Debris 4.5 05:20:32 33° W 05:22:19 61° NNW 05:26:01 10° ENE
Cosmos 1939 Rocket 3.1 05:20:22 10° N 05:23:49 37° WNW 05:24:25 34° W
Cosmos 1992 Rocket 3.9 05:18:47 10° SSW 05:24:00 74° WNW 05:29:15 10° NNE
COSMO-SKYMED 1 2.5 05:19:47 10° S 05:24:06 71° WSW 05:28:28 10° NNW
Cosmos 1486 Rocket 4.1 05:19:03 10° NNW 05:24:17 80° ENE 05:29:31 10° SSE
Lacrosse 4 Rocket 2.6 05:24:51 23° WSW 05:24:51 23° WSW 05:27:38 10° SSW
Cosmos 332 Rocket 4.1 05:20:01 10° NNW 05:24:54 68° ENE 05:29:44 10° SSE
Cosmos 1697 Rocket 3.8 05:24:30 22° NW 05:25:20 23° NW 05:29:48 10° N
NOAA 12 4.3 05:20:57 10° NNE 05:26:18 78° ESE 05:31:37 10° S
Cosmos 1844 4.1 05:22:39 10° NNW 05:28:18 66° ENE 05:33:59 10° SE
NOSS 2-1 (D) 3.4 05:29:47 24° NW 05:32:02 71° SW 05:37:09 10° SSE
Cosmos 2098 Rocket 2.7 05:28:40 10° N 05:32:32 73° E 05:35:46 10° SSE
Cosmos 2242 Rocket 4.4 05:31:42 22° WSW 05:33:28 28° WNW 05:37:21 10° N
Cosmos 2227 4.1 05:28:56 10° NNW 05:34:35 71° WSW 05:40:14 10° SSE
Cosmos 1818 4.0 05:32:02 21° W 05:35:15 41° NW 05:40:27 10° NNE
SJ-11-01 4.2 05:31:54 10° NNE 05:36:35 90° ENE 05:41:16 10° SSW
CZ-2C R/B 4.1 05:34:13 10° NNW 05:35:57 15° NW 05:35:57 15° NW
Cosmos 2315 Rocket 4.5 05:31:34 10° NNW 05:37:20 37° W 05:43:03 10° SSW
ATLAS 2AS CENTAUR R/B 3.5 05:34:49 20° WNW 05:38:52 33° NNW 05:45:05 10° NE
CRYOSAT 2 4.4 05:34:19 10° S 05:39:12 84° E 05:44:07 10° N
USA 59 Rocket 0.1 05:39:52 20° NW 05:42:30 61° SW 05:47:43 10° SSE
NOSS 3 (A) 3.3 05:42:42 56° SE 05:42:46 57° SE 05:44:17 10° NE
Cosmos 2263 Rocket 3.4 05:41:46 19° W 05:43:14 21° W 05:47:19 10° SSW
Cosmos 1455 Rocket 4.1 05:39:30 10° N 05:43:46 48° ENE 05:47:57 10° SSE
Nadezhda 1 Rocket 4.3 05:38:26 10° N 05:44:36 71° ENE 05:50:40 10° SSE
CBERS-1 4.2 05:41:47 10° N 05:46:44 50° WNW 05:51:39 10° SW
Cosmos 2237 4.1 05:41:17 10° SSW 05:46:57 78° WNW 05:52:41 10° NNE
SL-08 R/B 4.4 05:44:57 10° S 05:51:02 82° W 05:57:15 10° N
Cosmos 1869 4.3 05:48:11 10° N 05:51:53 47° ENE 05:55:34 10° SSE
Cosmos 2151 Rocket 4.1 05:50:01 10° NNW 05:54:05 36° W 05:58:10 10° SSW
Cosmos 2360 Rocket 3.1 05:48:56 10° S 05:54:22 53° ESE 05:59:49 10° NE
Cosmos 1437 Rocket 3.1 05:51:04 10° SW 05:54:23 36° WNW 05:57:46 10° N
SL-08 RB Rocket 4.4 05:57:04 10° N 06:01:09 33° WNW 06:05:15 10° SW
Cosmos 1484 Rocket 4.0 05:59:02 10° NNW 06:01:31 18° WNW 06:03:59 10° WSW
Cosmos 1606 2.3 05:59:03 10° N 06:02:28 86° W 06:05:49 10° S
Okean 1 Rocket 3.3 05:58:12 10° NNW 06:02:31 49° W 06:06:48 10° SSW
Cosmos 1354 Rocket 4.1 05:58:11 10° NNW 06:03:33 82° ENE 06:08:49 10° SSE
BREEZE-M DEB (TANK) 2.6 05:59:20 13° W 06:04:19 75° N 06:06:33 10° E
Cosmos 2084 Rocket 3.4 06:00:27 10° SW 06:04:45 68° NW 06:08:57 10° NE
SL-16 R/B 2.2 06:00:58 10° SW 06:06:36 68° WNW 06:12:17 10° NNE
Cosmos 292 Rocket 4.2 06:04:18 10° NNW 06:09:06 66° ENE 06:13:53 10° SSE
Gbstr 26 Del rocket 3.4 06:05:08 10° WSW 06:09:51 84° NNW 06:15:45 10° ENE
NOSS 2-1 (E) 4.3 06:06:50 12° WNW 06:10:16 38° SW 06:15:13 10° SSE
CZ-2D R/B 2.9 06:08:06 10° N 06:11:39 77° WNW 06:15:09 10° SSW
EXPRESS MD2 3.1 06:10:19 10° SW 06:13:31 52° SSE 06:15:47 10° E
TRACE 4.2 06:10:18 10° S 06:13:32 75° WSW 06:16:49 10° NNW
ADEOS Rocket 3.6 06:08:11 10° NNE 06:15:31 78° ESE 06:22:04 10° S
CZ-2D R/B 3.4 06:13:18 10° NNE 06:17:15 85° ESE 06:21:15 10° SSW
SJ-12 3.8 06:15:57 10° N 06:19:50 58° WNW 06:23:42 10° SSW
H-2A R/B 3.8 06:21:08 10° NW 06:21:35 10° NW 06:22:02 10° NW
USA 290 4.4 06:19:54 10° N 06:22:32 24° ENE 06:25:08 10° ESE
Cosmos 990 Rocket 4.4 06:19:50 10° NNW 06:24:58 67° ENE 06:30:04 10° SSE
USA 215 3.4 06:22:19 10° NE 06:28:54 85° SE 06:35:27 10° SW
Cosmos 2333 Rocket 2.2 06:26:45 10° SSW 06:32:29 84° WNW 06:38:12 10° NNE
